Window Rock, AZ

7:02 AM MDT on May 28, 2017 (GMT -0600)
Window Rock

Weather History for KRQE - May, 2013

Change the Weather History Date:

Saturday, May 25, 2013

  Actual Average Record
Temperature  
Mean Temperature 56 °F -  
Max Temperature 79 °F 74 °F 88 °F (1984)
Min Temperature 34 °F 40 °F 26 °F (1980)
Degree Days  
Heating Degree Days 8    
Growing Degree Days 6 (Base 50)    
Moisture  
Dew Point 12 °F    
Average Humidity 17    
Maximum Humidity 38    
Minimum Humidity 7    
Precipitation  
Precipitation 0.00 in - - ()
Sea Level Pressure  
Sea Level Pressure 29.86 in    
Wind  
Wind Speed 7 mph (SW)    
Max Wind Speed 21 mph    
Max Gust Speed 34 mph    
Visibility 10 miles    
Events      
Averages and records for this station are not official NWS values.
T = Trace of Precipitation, MM = Missing Value Source: NWS Daily Summary

Daily Weather History Graph

Daily Weather History Graph

Search for Another Location

Airport or City:

Trip Planner

Search our weather history database for the weather conditions in past years. The results will help you decide how hot, cold, wet, or windy it might be!

Date:

Astronomy

May. 25, 2013 Rise Set
Actual Time 6:04 AM MDT 8:22 PM MDT
Civil Twilight 5:35 AM MDT 8:51 PM MDT
Nautical Twilight 4:59 AM MDT 9:27 PM MDT
Astronomical Twilight 4:20 AM MDT 10:06 PM MDT
Moon 9:14 PM MDT (5/25) 6:34 AM MDT (5/25)
Length of Visible Light 15h 15m
Length of Day
14h 17m
Waxing Gibbous, 99% of the Moon is Illuminated
May 25
Waxing Gibbous
May 31
Last Quarter
Jun 8
New
Jun 16
First Quarter
Jun 23
Full

Hourly Weather History & Observations

Time (MDT) Temp. Windchill Dew Point Humidity Pressure Visibility Wind Dir Wind Speed Gust Speed Precip Events Conditions
12:53 AM 54.0 °F - 10.0 °F 17% 29.83 in 10.0 mi ESE 3.5 mph - N/A   Clear
1:53 AM 54.0 °F - 10.0 °F 17% 29.83 in 10.0 mi Calm Calm - N/A   Clear
2:53 AM 45.0 °F - 12.9 °F 27% 29.86 in 10.0 mi Calm Calm - N/A   Clear
3:53 AM 39.0 °F 36.8 °F 12.9 °F 34% 29.88 in 10.0 mi NNW 3.5 mph - N/A   Clear
4:53 AM 36.0 °F - 10.9 °F 36% 29.91 in 10.0 mi Calm Calm - N/A   Clear
5:53 AM 34.0 °F - 10.9 °F 38% 29.94 in 10.0 mi Calm Calm - N/A   Clear
7:53 AM 46.0 °F - 12.9 °F 26% 29.94 in 10.0 mi Calm Calm - N/A   Clear
8:53 AM 59.0 °F - 17.1 °F 20% 29.93 in 10.0 mi Calm Calm - N/A   Clear
9:53 AM 66.9 °F - 19.0 °F 16% 29.90 in 10.0 mi South 8.1 mph - N/A   Clear
10:53 AM 73.0 °F - 17.1 °F 12% 29.87 in 10.0 mi SW 18.4 mph 23.0 mph N/A   Clear
11:53 AM 73.9 °F - 16.0 °F 11% 29.87 in 10.0 mi South 10.4 mph 25.3 mph N/A   Clear
12:53 PM 75.0 °F - 17.1 °F 11% 29.85 in 10.0 mi SSW 13.8 mph 23.0 mph N/A   Clear
1:53 PM 77.0 °F - 17.1 °F 10% 29.81 in 10.0 mi SW 19.6 mph 26.5 mph N/A   Clear
2:53 PM 79.0 °F - 16.0 °F 9% 29.83 in 10.0 mi SW 20.7 mph 27.6 mph N/A   Clear
3:53 PM 79.0 °F - 8.1 °F 7% 29.84 in 10.0 mi WSW 17.3 mph 31.1 mph N/A   Clear
4:53 PM 79.0 °F - 14.0 °F 9% 29.83 in 10.0 mi WSW 20.7 mph 34.5 mph N/A   Clear
5:53 PM 77.0 °F - 9.0 °F 7% 29.84 in 10.0 mi SW 18.4 mph 28.8 mph N/A   Clear
6:53 PM 75.0 °F - 12.9 °F 9% 29.84 in 10.0 mi WSW 15.0 mph - N/A   Clear
7:53 PM 71.1 °F - 8.1 °F 9% 29.83 in 10.0 mi SW 16.1 mph 24.2 mph N/A   Clear
8:53 PM 63.0 °F - 8.1 °F 11% 29.83 in 10.0 mi SW 5.8 mph - N/A   Clear
9:53 PM 57.0 °F - 8.1 °F 14% 29.84 in 10.0 mi SSW 6.9 mph - N/A   Clear
10:53 PM 55.9 °F - 8.1 °F 15% 29.83 in 10.0 mi SSW 6.9 mph - N/A   Clear
11:53 PM 51.1 °F - 8.1 °F 18% 29.85 in 10.0 mi SW 8.1 mph - N/A   Clear